FCYISA OIBV-OMFJ

Flight info

Callsign FCYISA
Flight time 1h 46m
Altitude 7500
Route OIKB
Aircraft C414/L-SDE2E3FGHIRWXY/S

Departure

Time 2026-04-29 18:41
Airport Lavan Airport (OIBV)

Arrival

Time 2026-04-29 20:28
Airport Fujairah International Airport (OMFJ)
Time Latitude Longitude Altitude Speed Heading
2026-04-29 18:20 26.80910 53.35128 68 ft 0 kts 199°
2026-04-29 18:32 26.80910 53.35109 72 ft 4 kts 323°
2026-04-29 18:32 26.80946 53.35116 77 ft 7 kts 25°
2026-04-29 18:33 26.80996 53.35143 71 ft 8 kts 27°
2026-04-29 18:33 26.81049 53.35173 76 ft 9 kts 26°
2026-04-29 18:33 26.81093 53.35196 77 ft 0 kts 25°
2026-04-29 18:34 26.81111 53.35223 74 ft 13 kts 72°
2026-04-29 18:34 26.81082 53.35375 76 ft 15 kts 110°
2026-04-29 18:34 26.81050 53.35478 75 ft 13 kts 109°
2026-04-29 18:35 26.81024 53.35563 75 ft 10 kts 108°
2026-04-29 18:35 26.81004 53.35628 73 ft 8 kts 108°
2026-04-29 18:35 26.80988 53.35680 71 ft 6 kts 111°
2026-04-29 18:35 26.80970 53.35732 71 ft 10 kts 110°
2026-04-29 18:36 26.80935 53.35822 74 ft 15 kts 114°
2026-04-29 18:36 26.80886 53.35964 71 ft 23 kts 111°
2026-04-29 18:36 26.80823 53.36150 73 ft 28 kts 111°
2026-04-29 18:36 26.80754 53.36361 72 ft 30 kts 112°
2026-04-29 18:37 26.80664 53.36536 72 ft 16 kts 150°
2026-04-29 18:37 26.80654 53.36580 72 ft 0 kts 352°
2026-04-29 18:39 26.80661 53.36579 66 ft 4 kts 351°
2026-04-29 18:39 26.80698 53.36564 71 ft 8 kts 309°
2026-04-29 18:39 26.80722 53.36507 69 ft 7 kts 291°
2026-04-29 18:39 26.80734 53.36473 70 ft 3 kts 291°
2026-04-29 18:40 26.80735 53.36469 68 ft 0 kts 289°
2026-04-29 18:40 26.80749 53.36423 69 ft 27 kts 290°
2026-04-29 18:40 26.80882 53.36040 74 ft 75 kts 291°
2026-04-29 18:41 26.82211 53.34393 524 ft 124 kts
2026-04-29 18:41 26.82963 53.34943 814 ft 138 kts 49°
2026-04-29 18:42 26.83275 53.35976 1187 ft 141 kts 78°
2026-04-29 18:42 26.83420 53.37035 1655 ft 136 kts 74°
2026-04-29 18:42 26.83575 53.38071 2046 ft 134 kts 75°
2026-04-29 18:42 26.83341 53.39090 2438 ft 141 kts 117°
2026-04-29 18:43 26.82846 53.40026 2818 ft 136 kts 115°
2026-04-29 18:43 26.82383 53.40918 3203 ft 128 kts 115°
2026-04-29 18:43 26.81951 53.41747 3565 ft 118 kts 115°
2026-04-29 18:43 26.81558 53.42513 3888 ft 112 kts 115°
2026-04-29 18:44 26.81148 53.43330 3986 ft 127 kts 116°
2026-04-29 18:44 26.80700 53.44242 4136 ft 140 kts 116°
2026-04-29 18:44 26.80217 53.45237 4309 ft 151 kts 116°
2026-04-29 18:44 26.79705 53.46319 4470 ft 162 kts 116°
2026-04-29 18:45 26.79172 53.47470 4629 ft 171 kts 116°
2026-04-29 18:45 26.78621 53.48677 4774 ft 177 kts 116°
2026-04-29 18:45 26.78057 53.49927 4912 ft 182 kts 116°
2026-04-29 18:45 26.77488 53.51210 5046 ft 186 kts 116°
2026-04-29 18:46 26.76919 53.52502 5178 ft 189 kts 116°
2026-04-29 18:46 26.76328 53.53853 5307 ft 192 kts 115°
2026-04-29 18:46 26.75741 53.55206 5438 ft 194 kts 116°
2026-04-29 18:46 26.75154 53.56561 5494 ft 198 kts 115°
2026-04-29 18:47 26.74525 53.57955 5501 ft 204 kts 116°
2026-04-29 18:47 26.73876 53.59386 5500 ft 208 kts 115°
2026-04-29 18:47 26.73223 53.60840 5501 ft 210 kts 115°
2026-04-29 18:47 26.72559 53.62306 5499 ft 211 kts 115°
2026-04-29 18:48 26.71890 53.63780 5499 ft 213 kts 116°
2026-04-29 18:48 26.71217 53.65261 5502 ft 213 kts 116°
2026-04-29 18:48 26.70545 53.66744 5500 ft 214 kts 116°
2026-04-29 18:48 26.69872 53.68230 5500 ft 213 kts 116°
2026-04-29 18:49 26.69428 53.69210 5488 ft 213 kts 115°
2026-04-29 18:49 26.68759 53.70689 5488 ft 213 kts 115°
2026-04-29 18:49 26.68088 53.72173 5487 ft 214 kts 115°
2026-04-29 18:49 26.67409 53.73657 5489 ft 214 kts 116°
2026-04-29 18:50 26.66741 53.75145 5485 ft 214 kts 116°
2026-04-29 18:50 26.65877 53.77119 5485 ft 213 kts 116°
2026-04-29 18:50 26.65435 53.78128 5485 ft 214 kts 116°
2026-04-29 18:50 26.64786 53.79617 5484 ft 213 kts 116°
2026-04-29 18:51 26.64138 53.81109 5484 ft 212 kts 115°
2026-04-29 18:51 26.63500 53.82576 5477 ft 212 kts 115°
2026-04-29 18:51 26.62855 53.84059 5477 ft 212 kts 116°
2026-04-29 18:51 26.62203 53.85565 5476 ft 212 kts 116°
2026-04-29 18:52 26.61569 53.87031 5478 ft 212 kts 115°
2026-04-29 18:52 26.60922 53.88515 5479 ft 212 kts 115°
2026-04-29 18:52 26.60277 53.90000 5485 ft 212 kts 116°
2026-04-29 18:52 26.59651 53.91494 5482 ft 212 kts 115°
2026-04-29 18:53 26.59022 53.92983 5488 ft 212 kts 116°
2026-04-29 18:53 26.58388 53.94490 5483 ft 212 kts 115°
2026-04-29 18:53 26.57769 53.95982 5484 ft 212 kts 115°
2026-04-29 18:53 26.57146 53.97475 5478 ft 213 kts 116°
2026-04-29 18:54 26.56518 53.98980 5480 ft 214 kts 116°
2026-04-29 18:54 26.55894 54.00472 5476 ft 215 kts 116°
2026-04-29 18:54 26.55260 54.02004 5480 ft 215 kts 115°
2026-04-29 18:54 26.54639 54.03504 5476 ft 215 kts 115°
2026-04-29 18:55 26.54017 54.05014 5477 ft 214 kts 115°
2026-04-29 18:55 26.53395 54.06520 5477 ft 214 kts 116°
2026-04-29 18:55 26.52766 54.08045 5477 ft 213 kts 115°
2026-04-29 18:55 26.52146 54.09543 5476 ft 212 kts 116°
2026-04-29 18:56 26.51539 54.11017 5467 ft 212 kts 115°
2026-04-29 18:56 26.50926 54.12516 5465 ft 212 kts 115°
2026-04-29 18:56 26.50404 54.14053 5460 ft 212 kts 100°
2026-04-29 18:56 26.50291 54.15692 5462 ft 212 kts 92°
2026-04-29 18:57 26.50234 54.17331 5464 ft 212 kts 91°
2026-04-29 18:57 26.50182 54.18981 5463 ft 213 kts 92°
2026-04-29 18:57 26.50132 54.20634 5466 ft 213 kts 91°
2026-04-29 18:57 26.50079 54.22291 5465 ft 213 kts 91°
2026-04-29 18:58 26.50030 54.23942 5467 ft 213 kts 91°
2026-04-29 18:58 26.49985 54.25593 5466 ft 213 kts 91°
2026-04-29 18:58 26.49945 54.27249 5465 ft 214 kts 91°
2026-04-29 18:58 26.49907 54.28910 5465 ft 214 kts 91°
2026-04-29 18:59 26.49874 54.30574 5466 ft 214 kts 91°
2026-04-29 18:59 26.49839 54.32238 5466 ft 214 kts 91°
2026-04-29 18:59 26.49878 54.33904 5465 ft 214 kts 86°
2026-04-29 18:59 26.49985 54.35556 5465 ft 214 kts 85°
2026-04-29 19:00 26.50093 54.37219 5465 ft 214 kts 85°
2026-04-29 19:00 26.50200 54.38854 5459 ft 214 kts 85°
2026-04-29 19:00 26.50310 54.40514 5458 ft 214 kts 85°
2026-04-29 19:00 26.50421 54.42195 5459 ft 215 kts 85°
2026-04-29 19:01 26.50523 54.43841 5460 ft 216 kts 86°
2026-04-29 19:01 26.50636 54.45513 5463 ft 216 kts 85°
2026-04-29 19:01 26.50744 54.47188 5463 ft 216 kts 85°
2026-04-29 19:01 26.50849 54.48886 5463 ft 216 kts 85°
2026-04-29 19:02 26.50951 54.50535 5466 ft 216 kts 85°
2026-04-29 19:02 26.51015 54.51671 5466 ft 217 kts 85°
2026-04-29 19:02 26.51140 54.53896 5466 ft 217 kts 85°
2026-04-29 19:02 26.51235 54.55572 5462 ft 216 kts 85°
2026-04-29 19:03 26.51327 54.57253 5463 ft 217 kts 85°
2026-04-29 19:03 26.51419 54.58934 5463 ft 217 kts 85°
2026-04-29 19:03 26.51515 54.60612 5466 ft 217 kts 86°
2026-04-29 19:03 26.51613 54.62300 5465 ft 218 kts 85°
2026-04-29 19:04 26.51711 54.63993 5465 ft 218 kts 85°
2026-04-29 19:04 26.51810 54.65682 5468 ft 218 kts 85°
2026-04-29 19:04 26.51914 54.67373 5472 ft 219 kts 85°
2026-04-29 19:04 26.52015 54.69079 5474 ft 220 kts 86°
2026-04-29 19:05 26.52116 54.70783 5473 ft 220 kts 85°
2026-04-29 19:05 26.52218 54.72481 5473 ft 220 kts 85°
2026-04-29 19:05 26.52319 54.74190 5473 ft 221 kts 85°
2026-04-29 19:05 26.52419 54.75897 5467 ft 220 kts 85°
2026-04-29 19:06 26.52517 54.77601 5467 ft 219 kts 85°
2026-04-29 19:06 26.52617 54.79297 5465 ft 218 kts 85°
2026-04-29 19:06 26.52806 54.82697 5469 ft 221 kts 85°
2026-04-29 19:07 26.52899 54.84410 5464 ft 221 kts 86°
2026-04-29 19:07 26.52966 54.85547 5466 ft 222 kts 85°
2026-04-29 19:07 26.53098 54.87817 5459 ft 220 kts 85°
2026-04-29 19:07 26.53215 54.89515 5458 ft 219 kts 81°
2026-04-29 19:08 26.53479 54.91183 5457 ft 218 kts 78°
2026-04-29 19:08 26.53767 54.92841 5456 ft 218 kts 77°
2026-04-29 19:08 26.54053 54.94507 5456 ft 218 kts 77°
2026-04-29 19:08 26.54341 54.96173 5453 ft 218 kts 77°
2026-04-29 19:09 26.54633 54.97830 5453 ft 217 kts 77°
2026-04-29 19:09 26.54925 54.99487 5453 ft 218 kts 77°
2026-04-29 19:09 26.55211 55.01152 5457 ft 218 kts 77°
2026-04-29 19:09 26.55498 55.02813 5458 ft 218 kts 77°
2026-04-29 19:10 26.55787 55.04473 5459 ft 218 kts 77°
2026-04-29 19:10 26.56076 55.06132 5456 ft 218 kts 77°
2026-04-29 19:10 26.56367 55.07793 5454 ft 218 kts 77°
2026-04-29 19:10 26.56656 55.09455 5455 ft 217 kts 77°
2026-04-29 19:11 26.56944 55.11114 5454 ft 218 kts 77°
2026-04-29 19:11 26.57232 55.12768 5454 ft 217 kts 77°
2026-04-29 19:11 26.57520 55.14430 5454 ft 218 kts 77°
2026-04-29 19:11 26.57808 55.16096 5453 ft 217 kts 77°
2026-04-29 19:12 26.58096 55.17750 5448 ft 217 kts 77°
2026-04-29 19:12 26.58384 55.19391 5448 ft 217 kts 77°
2026-04-29 19:12 26.58674 55.21047 5447 ft 217 kts 77°
2026-04-29 19:12 26.58867 55.22143 5448 ft 217 kts 77°
2026-04-29 19:13 26.59254 55.24363 5447 ft 217 kts 77°
2026-04-29 19:13 26.59543 55.26018 5447 ft 217 kts 78°
2026-04-29 19:13 26.59834 55.27671 5448 ft 217 kts 78°
2026-04-29 19:13 26.60125 55.29337 5447 ft 218 kts 77°
2026-04-29 19:14 26.60418 55.31004 5446 ft 218 kts 77°
2026-04-29 19:14 26.60706 55.32671 5446 ft 219 kts 77°
2026-04-29 19:14 26.60992 55.34345 5447 ft 220 kts 77°
2026-04-29 19:14 26.61281 55.36019 5446 ft 219 kts 77°
2026-04-29 19:15 26.61568 55.37689 5443 ft 219 kts 77°
2026-04-29 19:15 26.61857 55.39360 5445 ft 219 kts 77°
2026-04-29 19:15 26.62144 55.41031 5444 ft 219 kts 77°
2026-04-29 19:15 26.62426 55.42681 5445 ft 220 kts 77°
2026-04-29 19:16 26.62712 55.44359 5449 ft 220 kts 78°
2026-04-29 19:16 26.63000 55.46037 5449 ft 220 kts 77°
2026-04-29 19:16 26.63284 55.47729 5445 ft 221 kts 77°
2026-04-29 19:16 26.63568 55.49413 5443 ft 221 kts 77°
2026-04-29 19:17 26.63858 55.51104 5444 ft 221 kts 77°
2026-04-29 19:17 26.64147 55.52785 5433 ft 219 kts 78°
2026-04-29 19:17 26.64438 55.54448 5437 ft 216 kts 78°
2026-04-29 19:17 26.64733 55.56074 5440 ft 216 kts 77°
2026-04-29 19:18 26.65028 55.57722 5436 ft 217 kts 77°
2026-04-29 19:18 26.65225 55.58836 5438 ft 217 kts 77°
2026-04-29 19:18 26.65612 55.61030 5437 ft 217 kts 77°
2026-04-29 19:18 26.65908 55.62693 5438 ft 218 kts 77°
2026-04-29 19:19 26.66205 55.64354 5442 ft 218 kts 77°
2026-04-29 19:19 26.66498 55.66023 5441 ft 220 kts 77°
2026-04-29 19:19 26.66789 55.67696 5438 ft 219 kts 77°
2026-04-29 19:19 26.67087 55.69369 5436 ft 219 kts 77°
2026-04-29 19:20 26.67384 55.71033 5432 ft 219 kts 77°
2026-04-29 19:20 26.67675 55.72701 5432 ft 218 kts 77°
2026-04-29 19:20 26.67966 55.74367 5431 ft 218 kts 77°
2026-04-29 19:20 26.68254 55.76041 5436 ft 221 kts 77°
2026-04-29 19:21 26.68656 55.77692 5432 ft 219 kts 66°
2026-04-29 19:21 26.69260 55.79244 5437 ft 217 kts 63°
2026-04-29 19:21 26.69876 55.80786 5437 ft 217 kts 63°
2026-04-29 19:21 26.70490 55.82327 5435 ft 217 kts 63°
2026-04-29 19:22 26.71104 55.83864 5436 ft 216 kts 63°
2026-04-29 19:22 26.71718 55.85402 5436 ft 216 kts 63°
2026-04-29 19:22 26.72333 55.86937 5436 ft 216 kts 63°
2026-04-29 19:22 26.72946 55.88474 5436 ft 216 kts 63°
2026-04-29 19:23 26.73561 55.90017 5429 ft 218 kts 63°
2026-04-29 19:23 26.74179 55.91564 5430 ft 218 kts 63°
2026-04-29 19:23 26.74799 55.93114 5433 ft 218 kts 63°
2026-04-29 19:23 26.75421 55.94665 5431 ft 218 kts 63°
2026-04-29 19:24 26.76039 55.96211 5429 ft 218 kts 63°
2026-04-29 19:24 26.76655 55.97757 5430 ft 218 kts 63°
2026-04-29 19:24 26.77281 55.99307 5432 ft 218 kts 61°
2026-04-29 19:24 26.78124 56.00695 5422 ft 214 kts 48°
2026-04-29 19:25 26.79058 56.02001 5414 ft 214 kts 47°
2026-04-29 19:25 26.79996 56.03296 5422 ft 215 kts 47°
2026-04-29 19:25 26.80937 56.04597 5420 ft 215 kts 47°
2026-04-29 19:25 26.81877 56.05896 5421 ft 214 kts 47°
2026-04-29 19:26 26.82817 56.07191 5423 ft 214 kts 47°
2026-04-29 19:26 26.83753 56.08485 5424 ft 214 kts 47°
2026-04-29 19:26 26.84688 56.09780 5421 ft 214 kts 47°
2026-04-29 19:26 26.85625 56.11077 5423 ft 214 kts 47°
2026-04-29 19:27 26.86561 56.12369 5426 ft 214 kts 47°
2026-04-29 19:27 26.87501 56.13669 5423 ft 214 kts 47°
2026-04-29 19:27 26.88441 56.14964 5425 ft 215 kts 47°
2026-04-29 19:27 26.89449 56.16179 5422 ft 212 kts 36°
2026-04-29 19:28 26.90597 56.17209 5421 ft 211 kts 33°
2026-04-29 19:28 26.91756 56.18218 5427 ft 211 kts 33°
2026-04-29 19:28 26.92920 56.19233 5424 ft 212 kts 33°
2026-04-29 19:28 26.94084 56.20250 5424 ft 212 kts 33°
2026-04-29 19:29 26.95232 56.21251 5421 ft 212 kts 33°
2026-04-29 19:29 26.96396 56.22265 5418 ft 212 kts 33°
2026-04-29 19:29 26.97559 56.23272 5422 ft 211 kts 33°
2026-04-29 19:29 26.98722 56.24283 5419 ft 212 kts 33°
2026-04-29 19:30 26.99883 56.25295 5420 ft 211 kts 33°
2026-04-29 19:30 27.01039 56.26302 5420 ft 211 kts 33°
2026-04-29 19:30 27.02203 56.27303 5421 ft 210 kts 32°
2026-04-29 19:30 27.03378 56.28275 5431 ft 210 kts 33°
2026-04-29 19:31 27.04537 56.29263 5431 ft 209 kts 33°
2026-04-29 19:31 27.05692 56.30254 5434 ft 209 kts 33°
2026-04-29 19:31 27.06841 56.31247 5428 ft 208 kts 33°
2026-04-29 19:31 27.07981 56.32244 5427 ft 208 kts 33°
2026-04-29 19:32 27.08735 56.32904 5427 ft 207 kts 33°
2026-04-29 19:32 27.09872 56.33898 5427 ft 207 kts 33°
2026-04-29 19:32 27.11023 56.34855 5274 ft 206 kts 27°
2026-04-29 19:32 27.12288 56.35648 4933 ft 209 kts 22°
2026-04-29 19:33 27.13583 56.36391 4648 ft 209 kts 22°
2026-04-29 19:33 27.14862 56.37153 4351 ft 206 kts 24°
2026-04-29 19:33 27.16067 56.37987 4105 ft 202 kts 27°
2026-04-29 19:33 27.17279 56.38759 3782 ft 200 kts 22°
2026-04-29 19:34 27.18528 56.39434 3490 ft 197 kts 18°
2026-04-29 19:34 27.19792 56.40092 3029 ft 203 kts 21°
2026-04-29 19:34 27.21016 56.40874 2721 ft 201 kts 26°
2026-04-29 19:34 27.22186 56.41669 2563 ft 190 kts 25°
2026-04-29 19:35 27.23290 56.42467 2278 ft 189 kts 30°
2026-04-29 19:35 27.24338 56.43356 2005 ft 188 kts 33°
2026-04-29 19:35 27.25384 56.44090 2022 ft 155 kts
2026-04-29 19:35 27.26162 56.43636 2007 ft 135 kts 289°
2026-04-29 19:36 27.26131 56.42458 1360 ft 166 kts 261°
2026-04-29 19:36 27.25776 56.41221 977 ft 167 kts 247°
2026-04-29 19:36 27.25122 56.40186 633 ft 161 kts 224°
2026-04-29 19:36 27.24271 56.39425 365 ft 146 kts 211°
2026-04-29 19:37 27.23475 56.38879 192 ft 124 kts 204°
2026-04-29 19:37 27.22982 56.38598 85 ft 117 kts 205°
2026-04-29 19:37 27.22115 56.38093 25 ft 91 kts 208°
2026-04-29 19:37 27.21663 56.37809 20 ft 52 kts 214°
2026-04-29 19:38 27.21492 56.37641 20 ft 15 kts 242°
2026-04-29 19:38 27.21475 56.37605 21 ft 0 kts 242°
2026-04-29 19:41 27.21473 56.37601 21 ft 5 kts 238°
2026-04-29 19:41 27.21412 56.37494 21 ft 24 kts 234°
2026-04-29 19:41 27.21400 56.37377 23 ft 19 kts 43°
2026-04-29 19:42 27.21603 56.37505 22 ft 59 kts 28°
2026-04-29 19:42 27.21904 56.37690 22 ft 88 kts 28°
2026-04-29 19:42 27.22772 56.38191 142 ft 114 kts 19°
2026-04-29 19:42 27.23527 56.38127 466 ft 112 kts 332°
2026-04-29 19:43 27.24037 56.37493 878 ft 108 kts 282°
2026-04-29 19:43 27.23927 56.36684 1258 ft 115 kts 234°
2026-04-29 19:43 27.23174 56.36175 1410 ft 143 kts 205°
2026-04-29 19:43 27.22200 56.35877 1691 ft 154 kts 198°
2026-04-29 19:44 27.21096 56.35545 1615 ft 175 kts 205°
2026-04-29 19:44 27.20214 56.34698 1743 ft 163 kts 250°
2026-04-29 19:44 27.20139 56.33488 1974 ft 155 kts 272°
2026-04-29 19:44 27.19683 56.32388 2208 ft 166 kts 225°
2026-04-29 19:45 27.18629 56.31790 2452 ft 173 kts 208°
2026-04-29 19:45 27.17452 56.31451 2684 ft 176 kts 192°
2026-04-29 19:45 27.16235 56.31308 2924 ft 175 kts 192°
2026-04-29 19:45 27.15024 56.31187 3151 ft 175 kts 188°
2026-04-29 19:46 27.13801 56.31264 3376 ft 176 kts 180°
2026-04-29 19:46 27.12584 56.31387 3608 ft 175 kts 180°
2026-04-29 19:46 27.11372 56.31514 3843 ft 175 kts 180°
2026-04-29 19:46 27.10164 56.31637 4078 ft 174 kts 180°
2026-04-29 19:47 27.08959 56.31762 4318 ft 174 kts 180°
2026-04-29 19:47 27.07758 56.31894 4560 ft 173 kts 180°
2026-04-29 19:47 27.06563 56.32026 4791 ft 172 kts 180°
2026-04-29 19:47 27.05373 56.32158 5023 ft 172 kts 180°
2026-04-29 19:48 27.04186 56.32288 5260 ft 171 kts 180°
2026-04-29 19:48 27.03401 56.32371 5401 ft 171 kts 180°
2026-04-29 19:48 27.01736 56.32542 5431 ft 187 kts 180°
2026-04-29 19:48 27.00413 56.32671 5432 ft 194 kts 180°
2026-04-29 19:49 26.99088 56.32635 5430 ft 191 kts 202°
2026-04-29 19:49 26.97854 56.32094 5428 ft 193 kts 202°
2026-04-29 19:49 26.96514 56.31856 5431 ft 198 kts 188°
2026-04-29 19:49 26.95122 56.31842 5429 ft 201 kts 185°
2026-04-29 19:50 26.93723 56.31862 5432 ft 201 kts 184°
2026-04-29 19:50 26.92328 56.31892 5431 ft 201 kts 184°
2026-04-29 19:50 26.90931 56.31921 5432 ft 200 kts 184°
2026-04-29 19:50 26.89535 56.31949 5431 ft 200 kts 184°
2026-04-29 19:51 26.88144 56.31977 5432 ft 200 kts 185°
2026-04-29 19:51 26.86760 56.32004 5431 ft 198 kts 185°
2026-04-29 19:51 26.85382 56.32032 5434 ft 199 kts 185°
2026-04-29 19:51 26.83989 56.32060 5431 ft 201 kts 184°
2026-04-29 19:52 26.82584 56.32086 5424 ft 202 kts 185°
2026-04-29 19:52 26.81187 56.32114 5424 ft 200 kts 184°
2026-04-29 19:52 26.79797 56.32143 5423 ft 200 kts 184°
2026-04-29 19:52 26.78406 56.32170 5423 ft 200 kts 184°
2026-04-29 19:53 26.77012 56.32197 5425 ft 200 kts 184°
2026-04-29 19:53 26.75614 56.32225 5425 ft 200 kts 184°
2026-04-29 19:53 26.74221 56.32253 5424 ft 200 kts 184°
2026-04-29 19:53 26.72829 56.32280 5423 ft 199 kts 185°
2026-04-29 19:54 26.70069 56.32335 5420 ft 198 kts 185°
2026-04-29 19:54 26.68693 56.32362 5421 ft 197 kts 185°
2026-04-29 19:54 26.67316 56.32389 5418 ft 198 kts 185°
2026-04-29 19:55 26.65934 56.32416 5420 ft 199 kts 184°
2026-04-29 19:55 26.64554 56.32444 5421 ft 198 kts 185°
2026-04-29 19:55 26.63176 56.32471 5421 ft 198 kts 184°
2026-04-29 19:55 26.61801 56.32499 5420 ft 198 kts 184°
2026-04-29 19:56 26.60423 56.32526 5418 ft 197 kts 184°
2026-04-29 19:56 26.59054 56.32553 5419 ft 197 kts 185°
2026-04-29 19:56 26.57681 56.32579 5421 ft 198 kts 185°
2026-04-29 19:56 26.56297 56.32607 5422 ft 199 kts 185°
2026-04-29 19:57 26.54914 56.32634 5423 ft 199 kts 185°
2026-04-29 19:57 26.53996 56.32664 5424 ft 200 kts 181°
2026-04-29 19:57 26.52142 56.33025 5410 ft 203 kts 173°
2026-04-29 19:57 26.50760 56.33355 5413 ft 203 kts 173°
2026-04-29 19:58 26.49382 56.33685 5415 ft 203 kts 173°
2026-04-29 19:58 26.47997 56.34018 5415 ft 203 kts 173°
2026-04-29 19:58 26.46615 56.34351 5416 ft 204 kts 173°
2026-04-29 19:58 26.45231 56.34686 5416 ft 204 kts 173°
2026-04-29 19:59 26.43843 56.35023 5416 ft 204 kts 173°
2026-04-29 19:59 26.42452 56.35359 5417 ft 205 kts 173°
2026-04-29 19:59 26.41057 56.35692 5417 ft 205 kts 173°
2026-04-29 19:59 26.39660 56.36022 5416 ft 205 kts 173°
2026-04-29 20:00 26.38268 56.36352 5416 ft 204 kts 173°
2026-04-29 20:00 26.36882 56.36680 5417 ft 204 kts 173°
2026-04-29 20:00 26.35485 56.37010 5417 ft 205 kts 174°
2026-04-29 20:00 26.34083 56.37336 5420 ft 207 kts 173°
2026-04-29 20:01 26.32691 56.37682 5425 ft 208 kts 173°
2026-04-29 20:01 26.31263 56.38032 5410 ft 212 kts 173°
2026-04-29 20:01 26.29825 56.38382 5409 ft 211 kts 173°
2026-04-29 20:01 26.28402 56.38735 5411 ft 206 kts 172°
2026-04-29 20:02 26.27004 56.39053 5409 ft 204 kts 172°
2026-04-29 20:02 26.25645 56.39344 5422 ft 195 kts 175°
2026-04-29 20:02 26.24302 56.39649 5429 ft 201 kts 173°
2026-04-29 20:02 26.23837 56.39763 5424 ft 204 kts 172°
2026-04-29 20:03 26.21511 56.40299 5424 ft 205 kts 178°
2026-04-29 20:03 26.20090 56.40491 5420 ft 207 kts 179°
2026-04-29 20:03 26.18662 56.40672 5417 ft 205 kts 178°
2026-04-29 20:03 26.17250 56.40844 5424 ft 205 kts 179°
2026-04-29 20:04 26.15828 56.41012 5424 ft 206 kts 179°
2026-04-29 20:04 26.14394 56.41190 5427 ft 207 kts 179°
2026-04-29 20:04 26.12963 56.41367 5428 ft 207 kts 179°
2026-04-29 20:04 26.11533 56.41544 5428 ft 207 kts 179°
2026-04-29 20:05 26.10097 56.41724 5420 ft 207 kts 179°
2026-04-29 20:05 26.08667 56.41904 5420 ft 207 kts 179°
2026-04-29 20:05 26.07232 56.42087 5425 ft 209 kts 179°
2026-04-29 20:05 26.05798 56.42265 5421 ft 210 kts 179°
2026-04-29 20:06 26.04345 56.42439 5420 ft 207 kts 179°
2026-04-29 20:06 26.02913 56.42607 5430 ft 208 kts 179°
2026-04-29 20:06 26.01463 56.42757 5421 ft 211 kts 181°
2026-04-29 20:06 26.00000 56.42910 5416 ft 211 kts 179°
2026-04-29 20:07 25.98536 56.43100 5416 ft 212 kts 179°
2026-04-29 20:07 25.97073 56.43284 5415 ft 211 kts 179°
2026-04-29 20:07 25.95629 56.43295 5411 ft 206 kts 191°
2026-04-29 20:07 25.94212 56.43126 5410 ft 204 kts 192°
2026-04-29 20:08 25.92798 56.42953 5414 ft 205 kts 192°
2026-04-29 20:08 25.91859 56.42842 5410 ft 204 kts 192°
2026-04-29 20:08 25.89999 56.42571 5418 ft 202 kts 197°
2026-04-29 20:08 25.88623 56.42229 5418 ft 202 kts 199°
2026-04-29 20:09 25.87256 56.41869 5419 ft 202 kts 199°
2026-04-29 20:09 25.85886 56.41502 5427 ft 202 kts 199°
2026-04-29 20:09 25.84513 56.41135 5427 ft 202 kts 199°
2026-04-29 20:09 25.83143 56.40774 5427 ft 202 kts 199°
2026-04-29 20:10 25.81770 56.40414 5425 ft 202 kts 199°
2026-04-29 20:10 25.80402 56.40056 5422 ft 202 kts 199°
2026-04-29 20:10 25.79030 56.39693 5423 ft 202 kts 199°
2026-04-29 20:10 25.77662 56.39334 5425 ft 202 kts 199°
2026-04-29 20:11 25.76288 56.38990 5426 ft 202 kts 199°
2026-04-29 20:11 25.74915 56.38653 5426 ft 202 kts 199°
2026-04-29 20:11 25.73546 56.38318 5422 ft 201 kts 199°
2026-04-29 20:11 25.72175 56.37981 5422 ft 201 kts 199°
2026-04-29 20:12 25.71270 56.37759 5423 ft 201 kts 199°
2026-04-29 20:12 25.69901 56.37425 5423 ft 202 kts 199°
2026-04-29 20:12 25.68527 56.37088 5418 ft 202 kts 199°
2026-04-29 20:12 25.67157 56.36754 5423 ft 201 kts 199°
2026-04-29 20:13 25.65777 56.36459 5418 ft 202 kts 195°
2026-04-29 20:13 25.64378 56.36245 5419 ft 202 kts 194°
2026-04-29 20:13 25.62978 56.36038 5422 ft 203 kts 194°
2026-04-29 20:13 25.61579 56.35834 5416 ft 203 kts 194°
2026-04-29 20:14 25.60002 56.35605 5420 ft 203 kts 194°
2026-04-29 20:14 25.58796 56.35430 5425 ft 203 kts 194°
2026-04-29 20:14 25.57389 56.35223 5424 ft 205 kts 194°
2026-04-29 20:14 25.55972 56.35014 5425 ft 205 kts 194°
2026-04-29 20:15 25.54565 56.34811 5423 ft 203 kts 194°
2026-04-29 20:15 25.53163 56.34615 5417 ft 202 kts 194°
2026-04-29 20:15 25.51768 56.34414 5415 ft 202 kts 194°
2026-04-29 20:15 25.50372 56.34208 5423 ft 204 kts 194°
2026-04-29 20:16 25.48958 56.33997 5415 ft 206 kts 194°
2026-04-29 20:16 25.47563 56.33789 5433 ft 200 kts 194°
2026-04-29 20:16 25.46163 56.33673 5425 ft 203 kts 189°
2026-04-29 20:16 25.44747 56.33600 5421 ft 204 kts 189°
2026-04-29 20:17 25.43327 56.33529 5422 ft 204 kts 189°
2026-04-29 20:17 25.41910 56.33449 5419 ft 204 kts 189°
2026-04-29 20:17 25.40487 56.33373 5419 ft 205 kts 189°
2026-04-29 20:17 25.39060 56.33303 5426 ft 206 kts 189°
2026-04-29 20:18 25.37628 56.33228 5418 ft 206 kts 189°
2026-04-29 20:18 25.36192 56.33169 5411 ft 206 kts 186°
2026-04-29 20:18 25.34783 56.33253 5416 ft 201 kts 182°
2026-04-29 20:18 25.33391 56.33381 5410 ft 200 kts 180°
2026-04-29 20:19 25.32014 56.33536 5430 ft 200 kts 181°
2026-04-29 20:19 25.30613 56.33672 5436 ft 205 kts 181°
2026-04-29 20:19 25.29186 56.33807 5433 ft 206 kts 181°
2026-04-29 20:19 25.27741 56.33941 5281 ft 213 kts 181°
2026-04-29 20:20 25.26241 56.34068 5093 ft 218 kts 180°
2026-04-29 20:20 25.24717 56.34188 4915 ft 221 kts 180°
2026-04-29 20:20 25.23177 56.34287 4728 ft 222 kts 181°
2026-04-29 20:20 25.21631 56.34387 4560 ft 223 kts 180°
2026-04-29 20:21 25.20092 56.34475 4320 ft 219 kts 181°
2026-04-29 20:21 25.18576 56.34558 4005 ft 218 kts 181°
2026-04-29 20:21 25.17065 56.34572 3705 ft 216 kts 189°
2026-04-29 20:21 25.15582 56.34337 3393 ft 216 kts 194°
2026-04-29 20:22 25.14092 56.34046 3096 ft 218 kts 194°
2026-04-29 20:22 25.12594 56.33756 2789 ft 218 kts 194°
2026-04-29 20:22 25.11103 56.33461 2478 ft 217 kts 194°
2026-04-29 20:22 25.09662 56.33159 2438 ft 203 kts 194°
2026-04-29 20:23 25.08291 56.33179 2421 ft 198 kts 162°
2026-04-29 20:23 25.07242 56.34102 2425 ft 194 kts 121°
2026-04-29 20:23 25.06624 56.35418 2428 ft 191 kts 114°
2026-04-29 20:23 25.06041 56.36722 2464 ft 191 kts 114°
2026-04-29 20:24 25.05440 56.38059 2323 ft 197 kts 114°
2026-04-29 20:24 25.04952 56.39465 2179 ft 196 kts 93°
2026-04-29 20:24 25.05248 56.40873 2030 ft 188 kts 52°
2026-04-29 20:24 25.06191 56.41825 1895 ft 184 kts 32°
2026-04-29 20:25 25.07301 56.42490 1752 ft 181 kts
2026-04-29 20:25 25.08470 56.42287 1709 ft 167 kts 324°
2026-04-29 20:25 25.08954 56.41283 1806 ft 148 kts 283°
2026-04-29 20:25 25.09145 56.40149 1455 ft 147 kts 282°
2026-04-29 20:26 25.09341 56.39074 1172 ft 140 kts 281°
2026-04-29 20:26 25.09497 56.38027 983 ft 135 kts 278°
2026-04-29 20:26 25.09689 56.37055 717 ft 122 kts 282°
2026-04-29 20:26 25.09910 56.36208 451 ft 108 kts 282°
2026-04-29 20:27 25.10118 56.35430 290 ft 107 kts 284°
2026-04-29 20:27 25.10290 56.34925 221 ft 106 kts 287°
2026-04-29 20:27 25.10643 56.33938 109 ft 101 kts 289°
2026-04-29 20:27 25.10906 56.33247 83 ft 92 kts 289°
2026-04-29 20:28 25.11121 56.32626 88 ft 78 kts 294°
2026-04-29 20:28 25.11313 56.32153 99 ft 43 kts 295°
2026-04-29 20:28 25.11387 56.31939 104 ft 24 kts 287°
2026-04-29 20:28 25.11461 56.31795 108 ft 22 kts 316°
2026-04-29 20:29 25.11411 56.31840 106 ft 25 kts 108°
2026-04-29 20:29 25.11305 56.32133 100 ft 53 kts 113°
2026-04-29 20:29 25.11157 56.32541 89 ft 66 kts 111°
2026-04-29 20:29 25.11016 56.32945 70 ft 37 kts 108°
2026-04-29 20:30 25.11071 56.33088 72 ft 21 kts 33°
2026-04-29 20:30 25.11198 56.33151 72 ft 20 kts 20°
2026-04-29 20:30 25.11291 56.33237 71 ft 17 kts 63°
2026-04-29 20:30 25.11363 56.33243 72 ft 12 kts 305°
2026-04-29 20:31 25.11383 56.33182 74 ft 5 kts 303°
2026-04-29 20:31 25.11399 56.33151 73 ft 6 kts 264°
2026-04-29 20:31 25.11385 56.33131 78 ft 0 kts 191°